When you browse on this site, cookies collect data to enhance your experience and personalize the content and advertising you see.
Visit our Privacy Policy to learn more. By continuing to use the site, you agree to this use of cookies and data.
  • In United Kingdom
  • List of Countries
  • For 7 days
  • Water Temperature
  • Satellite Maps
  • Weather Map
  • Weather Widgets
  • user-avatar
    Login

    Hourly Weather Modica

    Today, 26 March, Tuesday

    Time Temperature Precipitation Wind Pressure Humidity
    00:00 +8°C° 0 mm 4 mps 722 mmHg 83%
    01:00 +8°C° 0 mm 6 mps 721 mmHg 79%
    02:00 +8°C° 0 mm 6 mps 721 mmHg 78%
    03:00 +8°C° 0 mm 7 mps 721 mmHg 76%
    04:00 +8°C° 0 mm 7 mps 721 mmHg 75%
    05:00 +9°C° 0 mm 7 mps 721 mmHg 77%
    06:00 +9°C° 0 mm 7 mps 721 mmHg 80%
    07:00 +9°C° 0 mm 7 mps 721 mmHg 83%
    08:00 +11°C° 0 mm 7 mps 721 mmHg 75%
    09:00 +12°C° 0 mm 7 mps 722 mmHg 68%
    10:00 +15°C° 0 mm 8 mps 722 mmHg 60%
    11:00 +16°C° 0 mm 8 mps 722 mmHg 56%
    12:00 +16°C° 0 mm 8 mps 722 mmHg 53%
    13:00 +17°C° 0 mm 8 mps 722 mmHg 49%
    14:00 +17°C° 0 mm 8 mps 722 mmHg 52%
    15:00 +16°C° 0 mm 9 mps 722 mmHg 55%
    16:00 +15°C° 0 mm 9 mps 722 mmHg 58%
    17:00 +12°C° 0 mm 8 mps 722 mmHg 62%
    18:00 +11°C° 0 mm 7 mps 722 mmHg 65%
    19:00 +9°C° 0 mm 6 mps 723 mmHg 68%
    20:00 +9°C° 0 mm 6 mps 723 mmHg 69%
    21:00 +8°C° 0 mm 5 mps 724 mmHg 69%
    22:00 +8°C° 0 mm 5 mps 724 mmHg 70%
    23:00 +8°C° 0 mm 5 mps 724 mmHg 72%

    Tomorrow, 27 March, Wednesday

    Time Temperature Precipitation Wind Pressure Humidity
    00:00 +8°C° 0 mm 4 mps 724 mmHg 75%
    01:00 +8°C° 0 mm 4 mps 725 mmHg 77%
    02:00 +8°C° 0 mm 4 mps 725 mmHg 76%
    03:00 +9°C° 0 mm 5 mps 724 mmHg 76%
    04:00 +9°C° 0 mm 5 mps 724 mmHg 75%
    05:00 +9°C° 0.1 mm 5 mps 724 mmHg 77%
    06:00 +8°C° 0.1 mm 4 mps 724 mmHg 79%
    07:00 +9°C° 0.1 mm 3 mps 725 mmHg 81%
    08:00 +9°C° 0.7 mm 3 mps 725 mmHg 83%
    09:00 +9°C° 0.7 mm 3 mps 725 mmHg 85%
    10:00 +10°C° 0.7 mm 3 mps 725 mmHg 87%
    11:00 +9°C° 1.5 mm 3 mps 725 mmHg 88%
    12:00 +9°C° 1.5 mm 3 mps 725 mmHg 88%
    13:00 +8°C° 1.5 mm 4 mps 725 mmHg 89%
    14:00 +9°C° 0 mm 3 mps 724 mmHg 88%
    15:00 +9°C° 0 mm 3 mps 724 mmHg 87%
    16:00 +10°C° 0 mm 3 mps 723 mmHg 86%
    17:00 +9°C° 0 mm 2 mps 724 mmHg 87%
    18:00 +9°C° 0 mm 2 mps 724 mmHg 89%
    19:00 +9°C° 0 mm 1 mps 724 mmHg 90%
    20:00 +9°C° 0 mm 1 mps 724 mmHg 91%
    21:00 +9°C° 0 mm 1 mps 724 mmHg 92%
    22:00 +8°C° 0 mm 1 mps 724 mmHg 92%
    23:00 +8°C° 0 mm 1 mps 724 mmHg 93%

    Day after tomorrow, 28 March, Thursday

    Time Temperature Precipitation Wind Pressure Humidity
    00:00 +8°C° 0 mm 1 mps 724 mmHg 93%
    01:00 +7°C° 0 mm 2 mps 724 mmHg 94%
    02:00 +6°C° 0 mm 2 mps 724 mmHg 92%
    03:00 +6°C° 0 mm 2 mps 724 mmHg 90%
    04:00 +6°C° 0 mm 2 mps 724 mmHg 89%
    05:00 +5°C° 0 mm 3 mps 724 mmHg 86%
    06:00 +7°C° 0 mm 3 mps 724 mmHg 84%
    07:00 +7°C° 0 mm 3 mps 725 mmHg 82%
    08:00 +9°C° 0 mm 3 mps 725 mmHg 74%
    09:00 +11°C° 0 mm 4 mps 726 mmHg 66%
    10:00 +13°C° 0 mm 4 mps 726 mmHg 58%
    11:00 +13°C° 0 mm 4 mps 726 mmHg 58%
    12:00 +13°C° 0 mm 4 mps 726 mmHg 58%
    13:00 +13°C° 0 mm 4 mps 726 mmHg 58%
    14:00 +13°C° 0.1 mm 4 mps 726 mmHg 61%
    15:00 +13°C° 0.1 mm 4 mps 726 mmHg 64%
    16:00 +12°C° 0.1 mm 4 mps 726 mmHg 67%
    17:00 +11°C° 0.1 mm 4 mps 726 mmHg 71%
    18:00 +10°C° 0.1 mm 4 mps 727 mmHg 74%
    19:00 +8°C° 0.1 mm 4 mps 727 mmHg 78%
    20:00 +8°C° 0 mm 5 mps 728 mmHg 78%
    21:00 +7°C° 0 mm 5 mps 728 mmHg 78%
    22:00 +7°C° 0 mm 6 mps 729 mmHg 79%
    23:00 +7°C° 0 mm 6 mps 729 mmHg 79%

    29 March, Friday

    Time Temperature Precipitation Wind Pressure Humidity
    00:00 +6°C° 0 mm 5 mps 729 mmHg 78%
    01:00 +6°C° 0 mm 5 mps 729 mmHg 78%
    02:00 +6°C° 0 mm 5 mps 729 mmHg 78%
    03:00 +6°C° 0 mm 4 mps 729 mmHg 78%
    04:00 +5°C° 0 mm 4 mps 729 mmHg 78%
    05:00 +7°C° 0 mm 3 mps 729 mmHg 77%
    06:00 +7°C° 0 mm 3 mps 729 mmHg 75%
    07:00 +8°C° 0 mm 3 mps 730 mmHg 74%
    08:00 +9°C° 0 mm 3 mps 730 mmHg 67%
    09:00 +11°C° 0 mm 3 mps 731 mmHg 60%
    10:00 +13°C° 0 mm 3 mps 731 mmHg 53%
    11:00 +14°C° 0 mm 3 mps 731 mmHg 52%
    12:00 +14°C° 0 mm 3 mps 731 mmHg 52%
    13:00 +14°C° 0 mm 3 mps 731 mmHg 52%
    14:00 +14°C° 0 mm 2 mps 731 mmHg 57%
    15:00 +13°C° 0 mm 2 mps 731 mmHg 62%
    16:00 +12°C° 0 mm 1 mps 730 mmHg 68%
    17:00 +12°C° 0 mm 1 mps 731 mmHg 69%
    18:00 +11°C° 0 mm 1 mps 731 mmHg 71%
    19:00 +11°C° 0 mm 1 mps 731 mmHg 73%
    20:00 +10°C° 0 mm 1 mps 731 mmHg 76%
    21:00 +9°C° 0 mm 1 mps 731 mmHg 79%
    22:00 +8°C° 0 mm 1 mps 732 mmHg 83%
    23:00 +8°C° 0 mm 1 mps 731 mmHg 84%

    30 March, Saturday

    Time Temperature Precipitation Wind Pressure Humidity
    00:00 +8°C° 0 mm 1 mps 731 mmHg 85%
    01:00 +8°C° 0 mm 1 mps 731 mmHg 86%
    02:00 +7°C° 0 mm 1 mps 731 mmHg 87%
    03:00 +7°C° 0 mm 1 mps 731 mmHg 89%
    04:00 +7°C° 0 mm 1 mps 731 mmHg 90%
    05:00 +8°C° 0 mm 1 mps 731 mmHg 88%
    06:00 +7°C° 0 mm 2 mps 731 mmHg 87%
    07:00 +8°C° 0 mm 2 mps 731 mmHg 85%
    08:00 +11°C° 0 mm 1 mps 731 mmHg 73%
    09:00 +13°C° 0 mm 1 mps 731 mmHg 61%
    10:00 +15°C° 0 mm 1 mps 731 mmHg 49%
    11:00 +15°C° 0 mm 1 mps 731 mmHg 48%
    12:00 +16°C° 0 mm 2 mps 730 mmHg 48%
    13:00 +16°C° 0 mm 3 mps 730 mmHg 47%
    14:00 +16°C° 0 mm 3 mps 730 mmHg 51%
    15:00 +14°C° 0 mm 3 mps 729 mmHg 55%
    16:00 +14°C° 0 mm 3 mps 729 mmHg 59%
    17:00 +12°C° 0 mm 3 mps 728 mmHg 67%
    18:00 +10°C° 0 mm 2 mps 728 mmHg 74%
    19:00 +9°C° 0 mm 1 mps 728 mmHg 82%
    20:00 +9°C° 0 mm 1 mps 728 mmHg 81%
    21:00 +8°C° 0 mm 1 mps 728 mmHg 81%
    22:00 +8°C° 0 mm 1 mps 728 mmHg 80%
    23:00 +8°C° 0 mm 1 mps 728 mmHg 79%

    31 March, Sunday

    Time Temperature Precipitation Wind Pressure Humidity
    00:00 +8°C° 0 mm 1 mps 728 mmHg 78%
    01:00 +7°C° 0 mm 1 mps 727 mmHg 78%
    02:00 +7°C° 0 mm 1 mps 727 mmHg 79%
    03:00 +7°C° 0 mm 1 mps 727 mmHg 80%
    04:00 +7°C° 0 mm 1 mps 726 mmHg 81%
    05:00 +8°C° 0 mm 1 mps 726 mmHg 80%
    06:00 +9°C° 0 mm 1 mps 726 mmHg 79%
    07:00 +9°C° 0 mm 1 mps 726 mmHg 78%
    08:00 +10°C° 0 mm 2 mps 726 mmHg 70%
    09:00 +13°C° 0 mm 2 mps 726 mmHg 63%
    10:00 +15°C° 0 mm 2 mps 727 mmHg 55%
    11:00 +16°C° 0 mm 3 mps 726 mmHg 53%
    12:00 +16°C° 0 mm 3 mps 726 mmHg 50%
    13:00 +17°C° 0 mm 4 mps 726 mmHg 47%
    14:00 +15°C° 0 mm 4 mps 725 mmHg 48%
    15:00 +15°C° 0 mm 4 mps 725 mmHg 49%
    16:00 +14°C° 0 mm 4 mps 724 mmHg 50%
    17:00 +12°C° 0 mm 3 mps 724 mmHg 57%
    18:00 +10°C° 0 mm 3 mps 724 mmHg 63%
    19:00 +8°C° 0 mm 2 mps 724 mmHg 70%
    20:00 +8°C° 0 mm 2 mps 724 mmHg 68%
    21:00 +8°C° 0 mm 2 mps 724 mmHg 67%
    22:00 +8°C° 0 mm 1 mps 724 mmHg 66%
    23:00 +8°C° 0 mm 1 mps 724 mmHg 66%
    Show more